When you browse on this site, cookies collect data to enhance your experience and personalize the content and advertising you see.
Visit our Privacy Policy to learn more. By continuing to use the site, you agree to this use of cookies and data.
  • în România
  • Lista ţărilor
  • Pe 7 zile
  • Temperatura apei
  • Hartă satelitară
  • Meteo pe hartă
  • Widget-uri
  • user-avatar
    Intrare

    Meteo pe oră la Manzhuriha

    Astăzi, 19 Februarie, Marţi

    Timp Temperatura Precipitaţii Vânt Presiune Umiditate
    00:00 -9°C° 0 mm 3 m/s 751 mmHg 82%
    01:00 -9°C° 0 mm 4 m/s 750 mmHg 79%
    02:00 -8°C° 0 mm 5 m/s 749 mmHg 76%
    03:00 -8°C° 0 mm 5 m/s 748 mmHg 76%
    04:00 -8°C° 0 mm 5 m/s 747 mmHg 77%
    05:00 -8°C° 0 mm 5 m/s 746 mmHg 77%
    06:00 -8°C° 0 mm 5 m/s 746 mmHg 78%
    07:00 -7°C° 0 mm 4 m/s 745 mmHg 78%
    08:00 -7°C° 0 mm 4 m/s 745 mmHg 79%
    09:00 -5°C° 0 mm 4 m/s 744 mmHg 80%
    10:00 -4°C° 0 mm 5 m/s 744 mmHg 81%
    11:00 -2°C° 0 mm 5 m/s 744 mmHg 82%
    12:00 -2°C° 0 mm 5 m/s 743 mmHg 84%
    13:00 -1°C° 0 mm 4 m/s 743 mmHg 86%
    14:00 -1°C° 0 mm 4 m/s 743 mmHg 88%
    15:00 -1°C° 0 mm 4 m/s 743 mmHg 88%
    16:00 -1°C° 0 mm 4 m/s 742 mmHg 89%
    17:00 -1°C° 0 mm 4 m/s 742 mmHg 89%
    18:00 -2°C° 0 mm 4 m/s 741 mmHg 90%
    19:00 -1°C° 0 mm 3 m/s 741 mmHg 90%
    20:00 -1°C° 0 mm 3 m/s 740 mmHg 91%
    21:00 -1°C° 0 mm 3 m/s 739 mmHg 90%
    22:00 -2°C° 0 mm 4 m/s 739 mmHg 90%
    23:00 -2°C° 0 mm 4 m/s 738 mmHg 90%

    Mâine, 20 Februarie, Miercuri

    Timp Temperatura Precipitaţii Vânt Presiune Umiditate
    00:00 -2°C° 0.1 mm 4 m/s 737 mmHg 90%
    01:00 -2°C° 0.1 mm 4 m/s 737 mmHg 90%
    02:00 -2°C° 0.1 mm 4 m/s 736 mmHg 90%
    03:00 -1°C° 0.1 mm 4 m/s 735 mmHg 89%
    04:00 -1°C° 0.1 mm 4 m/s 734 mmHg 89%
    05:00 -1°C° 0.1 mm 4 m/s 734 mmHg 89%
    06:00 -1°C° 0.2 mm 4 m/s 734 mmHg 90%
    07:00 -1°C° 0.2 mm 4 m/s 734 mmHg 91%
    08:00 0°C° 0.2 mm 4 m/s 733 mmHg 92%
    09:00 0°C° 0 mm 4 m/s 733 mmHg 92%
    10:00 0°C° 0 mm 4 m/s 733 mmHg 92%
    11:00 0°C° 0 mm 4 m/s 733 mmHg 92%
    12:00 0°C° 0.2 mm 4 m/s 733 mmHg 92%
    13:00 0°C° 0.2 mm 4 m/s 733 mmHg 92%
    14:00 0°C° 0.2 mm 4 m/s 733 mmHg 92%
    15:00 0°C° 0.1 mm 4 m/s 733 mmHg 92%
    16:00 +1°C° 0.1 mm 3 m/s 733 mmHg 92%
    17:00 0°C° 0.1 mm 3 m/s 733 mmHg 92%
    18:00 0°C° 0.1 mm 3 m/s 733 mmHg 92%
    19:00 0°C° 0.1 mm 3 m/s 733 mmHg 92%
    20:00 0°C° 0.1 mm 3 m/s 733 mmHg 92%
    21:00 0°C° 0 mm 3 m/s 733 mmHg 93%
    22:00 +1°C° 0 mm 2 m/s 733 mmHg 94%
    23:00 +1°C° 0 mm 2 m/s 733 mmHg 94%

    Poimâine, 21 Februarie, Joi

    Timp Temperatura Precipitaţii Vânt Presiune Umiditate
    00:00 -1°C° 0.1 mm 2 m/s 733 mmHg 95%
    01:00 -1°C° 0.1 mm 2 m/s 733 mmHg 95%
    02:00 -1°C° 0.1 mm 2 m/s 733 mmHg 96%
    03:00 -1°C° 0.1 mm 2 m/s 733 mmHg 96%
    04:00 -1°C° 0.1 mm 2 m/s 733 mmHg 96%
    05:00 -1°C° 0.1 mm 2 m/s 733 mmHg 96%
    06:00 -1°C° 0.3 mm 2 m/s 733 mmHg 95%
    07:00 -1°C° 0.3 mm 3 m/s 734 mmHg 94%
    08:00 -1°C° 0.3 mm 3 m/s 734 mmHg 94%
    09:00 -2°C° 0.7 mm 4 m/s 735 mmHg 93%
    10:00 -4°C° 0.7 mm 5 m/s 736 mmHg 92%
    11:00 -4°C° 0.7 mm 5 m/s 737 mmHg 92%
    12:00 -6°C° 0.4 mm 6 m/s 738 mmHg 90%
    13:00 -8°C° 0.4 mm 6 m/s 739 mmHg 88%
    14:00 -9°C° 0.4 mm 6 m/s 740 mmHg 87%
    15:00 -10°C° 0.2 mm 6 m/s 741 mmHg 85%
    16:00 -11°C° 0.2 mm 6 m/s 742 mmHg 83%
    17:00 -11°C° 0.2 mm 6 m/s 743 mmHg 81%
    18:00 -12°C° 0.1 mm 6 m/s 745 mmHg 79%
    19:00 -12°C° 0.1 mm 6 m/s 746 mmHg 78%
    20:00 -14°C° 0.1 mm 6 m/s 747 mmHg 76%
    21:00 -14°C° 0 mm 6 m/s 747 mmHg 76%
    22:00 -15°C° 0 mm 6 m/s 748 mmHg 76%
    23:00 -16°C° 0 mm 6 m/s 749 mmHg 76%

    22 Februarie, Vineri

    Timp Temperatura Precipitaţii Vânt Presiune Umiditate
    00:00 -16°C° 0 mm 6 m/s 750 mmHg 78%
    01:00 -15°C° 0 mm 5 m/s 750 mmHg 79%
    02:00 -15°C° 0 mm 5 m/s 751 mmHg 80%
    03:00 -15°C° 0 mm 5 m/s 752 mmHg 80%
    04:00 -15°C° 0 mm 5 m/s 752 mmHg 81%
    05:00 -15°C° 0 mm 5 m/s 753 mmHg 81%
    06:00 -15°C° 0 mm 5 m/s 753 mmHg 81%
    07:00 -15°C° 0 mm 5 m/s 754 mmHg 82%
    08:00 -15°C° 0 mm 5 m/s 754 mmHg 83%
    09:00 -14°C° 0 mm 5 m/s 755 mmHg 80%
    10:00 -15°C° 0 mm 6 m/s 755 mmHg 77%
    11:00 -14°C° 0 mm 6 m/s 755 mmHg 74%
    12:00 -14°C° 0 mm 6 m/s 755 mmHg 74%
    13:00 -12°C° 0 mm 6 m/s 755 mmHg 73%
    14:00 -12°C° 0 mm 6 m/s 756 mmHg 73%
    15:00 -14°C° 0 mm 6 m/s 756 mmHg 74%
    16:00 -15°C° 0 mm 6 m/s 757 mmHg 76%
    17:00 -14°C° 0 mm 5 m/s 757 mmHg 77%
    18:00 -14°C° 0 mm 5 m/s 758 mmHg 78%
    19:00 -14°C° 0 mm 5 m/s 759 mmHg 79%
    20:00 -15°C° 0 mm 5 m/s 759 mmHg 81%
    21:00 -15°C° 0 mm 5 m/s 759 mmHg 82%
    22:00 -15°C° 0 mm 5 m/s 760 mmHg 83%
    23:00 -15°C° 0 mm 5 m/s 760 mmHg 84%

    23 Februarie, Sâmbătă

    Timp Temperatura Precipitaţii Vânt Presiune Umiditate
    00:00 -15°C° 0 mm 4 m/s 760 mmHg 86%
    01:00 -16°C° 0 mm 4 m/s 760 mmHg 88%
    02:00 -15°C° 0 mm 3 m/s 761 mmHg 90%
    03:00 -16°C° 0 mm 3 m/s 761 mmHg 91%
    04:00 -17°C° 0 mm 3 m/s 761 mmHg 93%
    05:00 -16°C° 0 mm 2 m/s 760 mmHg 94%
    06:00 -16°C° 0 mm 2 m/s 761 mmHg 94%
    07:00 -15°C° 0 mm 2 m/s 761 mmHg 93%
    08:00 -15°C° 0 mm 2 m/s 761 mmHg 93%
    09:00 -14°C° 0 mm 2 m/s 761 mmHg 90%
    10:00 -13°C° 0 mm 2 m/s 761 mmHg 88%
    11:00 -9°C° 0 mm 1 m/s 761 mmHg 86%
    12:00 -9°C° 0 mm 1 m/s 761 mmHg 85%
    13:00 -8°C° 0 mm 1 m/s 761 mmHg 84%
    14:00 -7°C° 0 mm 1 m/s 761 mmHg 82%
    15:00 -8°C° 0 mm 1 m/s 761 mmHg 85%
    16:00 -9°C° 0 mm 1 m/s 761 mmHg 88%
    17:00 -10°C° 0 mm 1 m/s 761 mmHg 91%
    18:00 -10°C° 0 mm 1 m/s 762 mmHg 91%
    19:00 -11°C° 0 mm 0 m/s 762 mmHg 90%
    20:00 -11°C° 0 mm 0 m/s 762 mmHg 90%
    21:00 -11°C° 0 mm 1 m/s 763 mmHg 89%
    22:00 -11°C° 0 mm 1 m/s 763 mmHg 88%
    23:00 -12°C° 0 mm 1 m/s 763 mmHg 87%

    24 Februarie, Duminică

    Timp Temperatura Precipitaţii Vânt Presiune Umiditate
    00:00 -12°C° 0 mm 1 m/s 763 mmHg 87%
    01:00 -12°C° 0 mm 1 m/s 763 mmHg 87%
    02:00 -12°C° 0 mm 1 m/s 763 mmHg 86%
    03:00 -12°C° 0 mm 1 m/s 763 mmHg 86%
    04:00 -14°C° 0 mm 2 m/s 763 mmHg 86%
    05:00 -14°C° 0 mm 2 m/s 763 mmHg 85%
    06:00 -13°C° 0 mm 2 m/s 763 mmHg 83%
    07:00 -13°C° 0 mm 2 m/s 763 mmHg 81%
    08:00 -13°C° 0 mm 3 m/s 763 mmHg 79%
    09:00 -12°C° 0 mm 3 m/s 762 mmHg 79%
    10:00 -9°C° 0 mm 3 m/s 762 mmHg 80%
    11:00 -8°C° 0 mm 3 m/s 761 mmHg 80%
    12:00 -8°C° 0 mm 4 m/s 761 mmHg 81%
    13:00 -7°C° 0 mm 4 m/s 760 mmHg 81%
    14:00 -5°C° 0 mm 4 m/s 760 mmHg 82%
    15:00 -5°C° 0 mm 4 m/s 759 mmHg 83%
    16:00 -7°C° 0 mm 4 m/s 758 mmHg 84%
    17:00 -7°C° 0 mm 4 m/s 757 mmHg 85%
    18:00 -7°C° 0 mm 4 m/s 756 mmHg 84%
    19:00 -7°C° 0 mm 5 m/s 755 mmHg 84%
    20:00 -7°C° 0 mm 5 m/s 754 mmHg 84%
    21:00 -7°C° 0.2 mm 5 m/s 753 mmHg 86%
    22:00 -7°C° 0.2 mm 5 m/s 752 mmHg 88%
    23:00 -7°C° 0.2 mm 5 m/s 751 mmHg 89%
    Arată mai mult